Wetbulb
54.91 55.18 54.32 53.61 52.23 52.06 53.64 54.38 55.83 54.37 54.04 54.13 54.51 56.21 57.39 60.20 61.59 61.46 61.07 60.82 61.90 63.09 64.10 64.90 65.18 65.06 65.25 65.23 65.64 65.42 65.44 64.59 64.28 64.14 64.37 64.60 64.25 63.90 64.34 64.46 64.60 66.51 66.93
53.96 53.17 52.19 50.81 49.94 49.82 51.34 52.60 53.32 50.73 51.78 53.27 54.37 57.37 58.91 59.75 59.36 59.85 59.47 58.89 60.07 60.88 61.91 62.38 62.81 63.20 63.35 64.54 64.33 64.05 63.80 63.53 64.13 64.57 64.22 63.81 62.89 62.58 63.22 63.58 63.52 64.01 63.72
51.89 50.92 50.68 49.67 48.76 48.36 49.30 51.01 51.24 49.95 53.36 56.20 57.31 57.58 56.85 56.82 57.28 56.72 56.84 57.45 57.54 56.87 57.24 58.23 58.84 59.60 60.48 61.58 62.13 62.03 62.00 61.87 62.20 62.74 63.18 63.44 63.52 63.65 63.35 63.42 63.53 63.44 63.71
50.12 50.01 49.89 48.96 48.08 46.77 46.77 49.10 48.37 48.88 52.67 55.13 56.06 56.32 55.32 54.53 52.72 52.39 52.52 52.62 53.11 53.68 53.67 54.46 54.91 55.75 57.17 58.54 59.76 60.24 60.35 60.29 60.18 60.36 61.67 62.10 62.14 62.46 62.88 63.70 63.71 63.49 63.29
48.19 48.38 48.62 48.13 46.05 44.76 43.70 45.58 46.42 47.12 51.09 53.21 54.42 53.93 53.31 52.22 50.93 50.73 50.35 49.96 49.84 49.57 49.16 48.73 50.33 52.11 53.83 55.28 56.86 58.18 58.40 57.79 57.85 58.95 59.88 60.22 60.41 60.52 61.29 62.60 63.11 63.62 63.68
46.68 46.81 46.31 45.63 44.25 43.05 42.24 42.38 44.33 45.29 47.49 48.25 53.54 51.90 52.12 51.39 48.72 47.86 48.44 48.86 48.34 47.90 47.15 46.12 46.71 48.30 51.08 52.79 53.76 54.75 55.55 55.96 56.25 56.67 56.48 57.12 57.92 58.52 59.65 61.17 61.40 61.84 63.24
45.38 44.97 44.70 43.83 43.06 41.39 40.68 40.83 42.49 42.89 44.29 45.11 51.75 51.62 49.75 48.72 46.54 45.02 44.73 44.64 47.33 46.95 46.22 45.15 45.36 46.05 46.85 49.35 51.12 52.30 53.53 54.33 54.69 54.85 55.17 55.77 55.34 55.50 57.83 59.48 59.52 59.64 60.53
44.15 44.06 42.86 42.26 41.55 41.13 40.55 40.12 40.58 41.81 42.30 42.61 46.83 48.96 48.52 48.69 47.07 44.40 44.15 43.13 41.95 42.89 45.24 43.87 44.05 44.26 44.92 46.21 47.51 49.03 50.35 52.08 53.22 53.55 53.85 54.03 54.02 54.00 54.54 56.99 57.71 57.60 57.90
43.53 42.74 42.03 41.43 41.10 40.88 40.01 40.11 39.64 40.05 40.48 40.70 41.45 44.20 41.17 40.54 43.87 45.73 43.89 43.18 41.94 42.43 43.59 43.30 42.98 43.40 43.90 44.37 44.99 45.73 47.05 48.53 50.83 52.19 52.95 53.22 53.07 52.62 53.23 53.72 55.27 55.81 55.38
42.76 42.26 41.48 40.87 40.84 40.87 40.00 40.31 39.84 39.91 40.16 38.76 40.19 41.04 42.56 42.87 40.34 39.14 43.98 45.00 41.58 41.41 42.47 42.84 42.71 42.71 42.49 43.94 42.51 43.92 45.08 46.50 49.18 50.73 51.92 52.54 52.55 51.88 51.54 52.01 52.57 52.81 52.99
43.10 41.74 41.39 40.37 40.08 40.38 39.91 39.67 39.57 39.28 39.60 38.94 38.90 39.13 39.39 41.07 41.09 40.46 38.64 40.46 40.41 40.86 42.47 41.60 41.97 41.59 40.89 42.62 44.22 43.02 43.50 45.24 47.05 48.48 49.90 51.07 51.38 51.10 50.34 50.35 50.83 50.73 50.69
43.88 42.87 41.29 40.82 40.15 39.59 39.30 39.48 39.47 38.77 38.97 38.55 38.65 38.24 38.35 38.07 38.16 38.19 36.61 36.59 36.37 38.87 40.60 41.03 41.01 40.87 41.07 41.32 40.86 42.13 41.84 43.30 44.85 46.92 48.55 49.44 49.13 48.66 48.35 48.50 49.38 49.68 49.28
43.36 43.40 41.91 40.97 40.11 39.63 39.11 38.91 38.87 38.79 38.54 38.17 37.99 38.03 37.97 38.08 39.17 38.51 37.13 35.95 35.18 37.44 38.22 40.05 40.47 40.05 39.80 40.70 40.54 41.28 39.85 41.57 43.10 45.35 46.87 47.55 46.25 45.65 45.85 46.51 47.36 48.11 48.37
43.72 43.42 42.09 41.01 40.26 39.52 38.96 38.47 38.37 38.41 38.22 38.18 37.74 37.49 38.00 37.94 38.15 38.20 37.12 35.41 33.58 33.90 35.86 37.26 39.25 39.24 39.49 39.70 39.71 40.08 39.78 39.71 41.39 43.49 44.36 44.84 44.38 43.89 44.51 44.66 45.11 45.72 46.24
42.82 42.83 42.22 41.16 40.43 39.62 38.93 38.27 37.67 37.50 37.41 37.99 37.72 37.63 36.95 38.05 37.84 37.87 37.70 37.21 35.14 32.48 33.29 35.59 36.49 38.96 39.22 39.31 39.16 39.89 39.14 37.99 40.47 41.25 42.10 42.60 42.96 42.66 43.51 43.73 43.69 44.30 45.17
41.85 41.68 41.26 40.54 40.11 39.51 38.90 37.84 37.40 37.46 36.51 36.90 36.90 36.62 36.65 37.07 37.22 37.32 37.05 36.86 35.98 34.46 31.69 35.11 35.91 37.53 38.39 38.49 38.85 39.25 38.34 38.04 38.23 39.80 40.68 41.15 42.14 42.13 42.64 42.92 43.07 43.15 44.08
41.67 40.89 40.92 40.54 39.94 39.52 39.14 37.84 37.29 37.01 36.02 36.39 36.20 36.06 35.97 36.53 36.47 36.41 36.24 35.95 35.38 35.00 32.30 35.38 35.76 36.88 36.29 37.05 37.43 37.94 37.55 37.24 37.26 38.27 39.49 40.15 41.09 41.51 41.88 41.93 42.01 42.37 42.82
42.22 41.19 40.74 40.06 39.91 39.53 39.49 38.03 37.64 37.48 35.95 35.89 35.92 35.27 35.47 35.49 35.46 35.92 35.65 35.03 34.52 35.19 33.94 32.64 35.56 34.78 34.85 36.30 36.35 36.01 35.83 36.02 36.40 36.83 38.71 39.55 40.29 40.73 40.95 40.74 40.95 41.51 41.44
41.96 41.31 39.90 39.33 39.52 39.38 38.92 38.45 37.86 37.78 36.87 36.58 36.95 35.61 35.92 35.44 34.62 35.10 34.87 34.76 34.89 34.33 34.28 33.35 33.57 34.88 34.71 34.77 34.62 34.94 34.58 35.16 35.52 36.22 38.28 39.16 39.49 39.75 39.74 39.85 40.38 40.82 40.40
41.08 40.99 40.43 39.53 38.86 38.65 38.09 37.91 37.32 36.84 36.85 36.68 36.59 36.37 36.15 35.72 35.03 35.22 34.05 34.12 34.42 33.61 33.46 32.45 32.54 33.00 33.33 34.51 33.25 32.37 32.49 34.33 34.32 35.20 36.18 37.19 37.84 38.23 38.76 39.50 38.67 38.29 38.52
39.84 39.91 39.56 39.51 39.04 38.11 37.94 37.87 37.06 36.89 36.27 36.06 36.00 35.52 35.52 36.17 36.84 36.61 34.51 33.96 33.74 32.50 32.80 31.90 31.61 31.92 31.75 31.16 30.68 33.39 31.78 33.52 34.19 34.60 34.37 34.60 34.94 35.57 36.57 37.88 37.11 37.02 37.18
38.33 38.46 38.48 38.55 38.76 38.72 40.03 41.47 41.60 39.16 36.54 35.28 35.13 35.68 34.58 36.16 36.11 38.13 38.95 37.55 34.90 32.24 31.19 31.22 31.96 30.84 31.73 32.31 32.45 31.89 32.13 31.24 30.31 34.53 32.73 33.25 34.81 34.52 35.33 36.08 36.41 37.07 37.26
36.86 36.94 37.33 37.57 37.85 38.67 40.25 41.68 42.49 42.07 40.25 38.09 36.22 35.57 34.86 34.20 35.36 35.00 37.46 40.48 39.63 37.42 36.86 34.16 32.04 32.54 32.43 33.67 32.56 31.95 32.04 31.97 31.76 33.77 32.39 30.92 34.56 33.10 35.46 35.37 36.54 36.74 37.05
35.42 35.67 36.08 36.46 36.20 36.91 39.69 40.92 41.71 41.59 41.14 40.11 38.89 37.73 35.76 35.63 34.93 34.53 34.19 33.52 35.76 37.30 37.59 37.25 34.69 35.73 35.60 36.56 34.68 34.83 34.64 33.78 33.42 32.90 33.37 28.40 33.64 32.52 35.15 35.24 35.41 35.76 35.83
34.60 34.67 35.05 34.99 35.02 35.71 38.19 39.45 40.10 39.72 38.72 38.32 38.59 38.78 37.17 35.66 36.87 38.02 35.00 32.09 32.07 32.96 37.78 40.45 40.25 38.99 38.33 38.54 36.97 34.23 32.04 29.96 28.89 30.80 33.60 31.38 32.22 31.37 31.93 32.17 33.40 32.97 33.79
32.61 33.53 33.55 34.42 35.13 35.18 37.01 38.37 38.85 38.13 37.12 37.04 37.94 37.26 38.94 38.41 38.13 38.31 36.56 34.56 31.99 32.23 33.06 33.05 35.33 37.05 38.37 37.96 37.91 35.99 33.32 30.00 29.83 29.53 33.42 30.78 30.94 29.57 27.71 30.38 30.68 30.96 31.97
MSLP
1021.82 1021.70 1021.66 1021.61 1021.57 1021.43 1021.23 1020.87 1020.74 1020.59 1020.36 1020.28 1020.06 1019.90 1019.83 1019.80 1019.76 1019.80 1019.97 1019.83 1019.46 1019.10 1018.74 1018.46 1018.30 1018.17 1017.89 1017.83 1017.68 1017.55 1017.41 1017.33 1017.26 1017.09 1016.96 1016.90 1016.83 1016.69 1016.50 1016.28 1016.01 1015.42 1015.19
1022.09 1022.01 1021.91 1021.88 1021.78 1021.66 1021.39 1021.24 1021.05 1020.86 1020.59 1020.42 1020.19 1020.12 1020.05 1020.03 1020.11 1020.15 1020.24 1020.29 1020.05 1019.76 1019.44 1019.27 1018.98 1018.79 1018.60 1018.29 1018.17 1018.07 1017.91 1017.80 1017.53 1017.32 1017.24 1017.10 1016.95 1016.82 1016.59 1016.28 1016.00 1015.64 1015.34
1022.32 1022.29 1022.23 1022.25 1022.13 1021.91 1021.61 1021.35 1021.16 1021.05 1020.73 1020.49 1020.38 1020.37 1020.51 1020.53 1020.55 1020.57 1020.69 1020.67 1020.59 1020.52 1020.30 1020.02 1019.78 1019.57 1019.25 1018.89 1018.62 1018.50 1018.39 1018.25 1017.97 1017.76 1017.44 1017.15 1016.94 1016.70 1016.48 1016.16 1015.92 1015.63 1015.21
1022.66 1022.57 1022.48 1022.51 1022.37 1022.20 1021.94 1021.68 1021.55 1021.19 1021.05 1020.84 1020.78 1020.86 1020.84 1020.86 1020.98 1020.99 1021.03 1021.05 1021.13 1021.13 1021.06 1020.85 1020.54 1020.24 1019.87 1019.49 1019.17 1018.92 1018.81 1018.67 1018.44 1018.21 1017.89 1017.61 1017.33 1017.01 1016.73 1016.14 1015.73 1015.35 1015.05
1022.82 1022.77 1022.83 1022.85 1022.71 1022.60 1022.53 1022.21 1022.05 1021.72 1021.47 1021.25 1021.24 1021.34 1021.34 1021.27 1021.31 1021.42 1021.53 1021.64 1021.69 1021.69 1021.60 1021.52 1021.27 1020.85 1020.46 1020.14 1019.79 1019.45 1019.16 1018.97 1018.76 1018.58 1018.24 1017.90 1017.63 1017.34 1016.96 1016.47 1015.95 1015.30 1014.75
1023.04 1023.09 1023.11 1023.16 1023.02 1022.88 1022.82 1022.62 1022.53 1022.43 1022.27 1022.02 1021.66 1021.77 1021.85 1021.81 1021.89 1021.93 1021.93 1021.91 1022.02 1022.03 1021.98 1021.83 1021.65 1021.48 1021.12 1020.73 1020.40 1020.03 1019.70 1019.42 1019.12 1018.72 1018.40 1018.19 1017.99 1017.74 1017.37 1016.84 1016.37 1015.91 1015.14
1023.18 1023.26 1023.27 1023.22 1023.29 1023.26 1023.18 1022.98 1022.89 1022.78 1022.60 1022.46 1021.89 1021.88 1022.03 1022.07 1022.14 1022.24 1022.31 1022.31 1022.28 1022.31 1022.26 1022.13 1021.99 1021.86 1021.71 1021.47 1021.04 1020.64 1020.15 1019.72 1019.39 1019.11 1018.71 1018.34 1018.18 1018.09 1017.72 1017.19 1016.89 1016.58 1016.12
1023.21 1023.26 1023.37 1023.38 1023.63 1023.52 1023.35 1023.27 1023.19 1023.05 1023.01 1022.90 1022.34 1022.20 1021.94 1022.14 1022.12 1022.29 1022.33 1022.32 1022.47 1022.47 1022.44 1022.49 1022.42 1022.30 1022.12 1021.89 1021.67 1021.29 1020.86 1020.30 1019.80 1019.37 1018.94 1018.55 1018.26 1018.17 1018.00 1017.60 1017.33 1017.14 1016.82
1023.31 1023.47 1023.54 1023.58 1023.75 1023.72 1023.58 1023.54 1023.52 1023.38 1023.22 1023.14 1023.00 1022.71 1022.41 1022.09 1022.16 1022.18 1022.19 1022.35 1022.40 1022.37 1022.44 1022.53 1022.60 1022.57 1022.44 1022.23 1021.99 1021.65 1021.37 1020.90 1020.28 1019.79 1019.28 1018.72 1018.35 1018.18 1018.14 1017.98 1017.70 1017.40 1017.26
1023.30 1023.43 1023.52 1023.71 1023.88 1023.84 1023.70 1023.56 1023.46 1023.34 1023.20 1022.93 1022.95 1022.85 1022.74 1022.62 1022.39 1022.08 1022.10 1022.11 1022.33 1022.36 1022.42 1022.40 1022.46 1022.52 1022.44 1022.28 1022.20 1021.90 1021.49 1021.04 1020.52 1020.06 1019.58 1019.15 1018.63 1018.30 1018.23 1018.15 1017.92 1017.60 1017.55
1023.30 1023.34 1023.49 1023.69 1023.73 1023.70 1023.64 1023.55 1023.50 1023.42 1023.38 1023.22 1023.13 1023.04 1022.97 1022.91 1022.80 1022.48 1021.91 1022.01 1022.12 1022.26 1022.31 1022.26 1022.21 1022.15 1022.22 1022.14 1021.90 1021.75 1021.47 1021.04 1020.55 1020.09 1019.59 1019.21 1019.01 1018.99 1018.86 1018.47 1017.99 1017.76 1017.74
1023.02 1023.07 1023.31 1023.43 1023.46 1023.52 1023.47 1023.39 1023.42 1023.37 1023.32 1023.30 1023.27 1023.20 1022.97 1022.75 1022.61 1022.58 1022.48 1022.29 1022.16 1021.87 1022.04 1022.07 1022.03 1022.06 1022.05 1021.94 1021.83 1021.68 1021.46 1021.11 1020.71 1020.19 1019.76 1019.37 1019.22 1019.25 1019.18 1019.06 1018.62 1017.96 1017.70
1022.69 1022.67 1022.98 1023.06 1023.05 1023.14 1023.21 1023.22 1023.16 1023.08 1023.06 1023.02 1022.94 1022.87 1022.96 1022.84 1022.82 1022.69 1022.58 1022.32 1022.10 1021.88 1021.52 1021.42 1021.42 1021.61 1021.69 1021.75 1021.71 1021.55 1021.42 1021.09 1020.78 1020.32 1019.86 1019.51 1019.52 1019.50 1019.22 1019.10 1018.82 1018.44 1017.99
1022.31 1022.37 1022.50 1022.53 1022.49 1022.58 1022.63 1022.73 1022.74 1022.68 1022.74 1022.78 1022.76 1022.78 1022.68 1022.62 1022.68 1022.60 1022.44 1022.44 1022.24 1022.01 1021.57 1020.90 1021.26 1021.32 1021.35 1021.35 1021.29 1021.26 1021.08 1020.99 1020.61 1020.21 1019.90 1019.61 1019.57 1019.62 1019.31 1019.07 1018.96 1018.53 1018.13
1021.68 1021.72 1021.83 1021.88 1021.90 1022.01 1022.12 1022.28 1022.31 1022.19 1022.28 1022.26 1022.25 1022.33 1022.41 1022.30 1022.38 1022.31 1022.31 1022.25 1021.96 1021.50 1020.98 1020.58 1020.70 1020.79 1020.92 1021.10 1021.06 1020.87 1020.76 1020.64 1020.29 1019.98 1019.70 1019.45 1019.27 1019.24 1019.13 1019.03 1018.82 1018.68 1018.06
1021.30 1021.31 1021.34 1021.42 1021.39 1021.48 1021.55 1021.79 1021.76 1021.71 1021.81 1021.72 1021.67 1021.68 1021.61 1021.62 1021.70 1021.75 1021.77 1021.74 1021.76 1021.57 1021.13 1020.44 1020.38 1020.52 1020.68 1020.61 1020.71 1020.64 1020.57 1020.39 1020.04 1019.72 1019.41 1019.18 1018.98 1018.90 1018.71 1018.53 1018.59 1018.51 1018.05
1020.98 1020.98 1020.95 1021.00 1020.99 1020.91 1020.80 1020.93 1020.77 1020.76 1020.82 1020.67 1020.69 1020.71 1020.56 1020.82 1020.84 1021.00 1021.22 1021.25 1021.12 1021.17 1020.83 1020.12 1020.12 1020.03 1020.19 1020.11 1020.00 1020.10 1020.11 1019.88 1019.59 1019.35 1019.07 1018.86 1018.61 1018.48 1018.39 1018.21 1018.04 1017.98 1017.85
1020.43 1020.41 1020.41 1020.36 1020.22 1020.03 1019.96 1020.02 1019.95 1019.93 1020.03 1019.90 1019.74 1020.03 1019.77 1020.02 1020.06 1020.16 1020.32 1020.27 1020.24 1020.28 1020.32 1019.74 1019.42 1019.47 1019.49 1019.55 1019.52 1019.48 1019.35 1019.23 1019.10 1018.91 1018.67 1018.40 1018.23 1018.04 1017.96 1017.82 1017.60 1017.39 1017.47
1020.18 1020.07 1020.05 1019.89 1019.62 1019.41 1019.33 1019.20 1019.10 1018.95 1018.87 1018.68 1018.52 1018.59 1018.44 1018.77 1018.87 1018.94 1019.07 1019.09 1019.22 1019.41 1019.51 1019.38 1018.95 1018.95 1018.97 1019.12 1019.17 1019.08 1018.82 1018.57 1018.48 1018.35 1018.13 1017.81 1017.66 1017.54 1017.49 1017.31 1017.09 1017.04 1017.04
1020.07 1019.88 1019.71 1019.44 1019.16 1018.87 1018.71 1018.51 1018.39 1018.17 1017.92 1017.70 1017.56 1017.47 1017.40 1017.46 1017.42 1017.49 1017.80 1017.89 1018.08 1018.48 1018.56 1018.62 1018.45 1018.28 1018.30 1018.21 1018.43 1018.31 1018.04 1017.95 1017.69 1017.71 1017.55 1017.32 1017.12 1017.07 1016.96 1016.74 1016.87 1016.91 1016.79
1019.87 1019.62 1019.36 1018.98 1018.65 1018.34 1017.98 1017.70 1017.57 1017.36 1017.15 1016.90 1016.64 1016.47 1016.34 1016.19 1016.10 1016.16 1016.36 1016.46 1016.85 1017.16 1017.42 1017.53 1017.36 1017.45 1017.36 1017.49 1017.30 1017.12 1017.23 1017.12 1017.05 1017.08 1016.85 1016.59 1016.53 1016.43 1016.26 1016.31 1016.40 1016.42 1016.34
1019.71 1019.40 1019.05 1018.65 1018.13 1017.72 1017.37 1017.02 1016.80 1016.50 1016.21 1015.94 1015.48 1015.13 1015.02 1014.97 1014.91 1014.98 1014.99 1015.10 1015.20 1015.57 1015.76 1016.05 1015.93 1015.97 1015.78 1016.13 1016.38 1016.41 1016.49 1016.61 1016.27 1016.39 1016.43 1015.99 1016.13 1015.81 1015.70 1015.67 1015.71 1015.66 1015.58
1019.38 1019.01 1018.58 1018.29 1017.81 1017.17 1016.77 1016.35 1015.95 1015.64 1015.23 1014.90 1014.62 1014.34 1014.11 1013.91 1014.00 1013.91 1013.71 1013.64 1013.88 1014.06 1014.05 1014.29 1014.38 1014.48 1014.69 1014.92 1015.43 1015.59 1015.58 1015.65 1015.50 1015.59 1016.01 1015.32 1015.45 1015.16 1015.00 1014.94 1014.93 1014.82 1014.72
1019.17 1018.74 1018.22 1017.80 1017.45 1016.71 1016.17 1015.75 1015.24 1014.79 1014.33 1013.92 1013.54 1013.22 1012.97 1012.71 1012.68 1012.65 1012.71 1012.74 1012.55 1012.45 1012.61 1012.81 1013.10 1013.30 1013.65 1014.02 1014.28 1014.44 1014.49 1014.68 1014.97 1015.07 1015.32 1014.77 1014.58 1014.26 1014.08 1014.13 1014.18 1014.08 1014.06
1018.76 1018.33 1017.93 1017.41 1016.87 1016.16 1015.53 1015.04 1014.60 1014.03 1013.44 1012.90 1012.47 1012.08 1011.82 1011.55 1011.20 1011.46 1011.62 1011.68 1011.56 1011.39 1011.15 1011.39 1011.74 1012.34 1012.91 1013.23 1013.38 1013.80 1013.82 1014.25 1014.02 1013.84 1014.10 1014.15 1013.80 1013.75 1013.73 1013.41 1013.31 1013.56 1013.52
1018.66 1018.17 1017.56 1017.01 1016.40 1015.64 1015.06 1014.44 1013.96 1013.38 1012.73 1012.16 1011.57 1011.20 1010.86 1010.45 1010.10 1010.17 1010.19 1010.21 1010.33 1009.92 1010.27 1010.73 1011.07 1011.29 1011.78 1011.95 1012.17 1012.33 1012.79 1012.90 1013.15 1013.04 1012.98 1013.51 1013.39 1013.80 1013.24 1013.06 1013.16 1013.25 1013.17
Wind_Speed
4 4 4 4 5 5 5 5 5 5 5 5 4 4 4 4 5 3 4 12 11 12 13 15 15 16 16 13 14 15 14 12 10 11 9 11 10 7 12 13 15 15 19
4 4 4 4 5 5 4 4 4 5 4 4 4 5 6 6 6 6 5 5 16 16 16 15 16 17 15 14 14 14 15 14 15 14 10 9 7 8 11 12 10 12 8
4 4 4 4 4 5 5 4 4 5 4 4 6 6 6 7 7 7 6 4 6 14 14 14 14 13 13 13 13 13 14 14 15 16 15 13 15 11 10 12 13 13 12
5 4 3 4 4 4 4 3 4 4 4 5 4 5 5 6 7 8 7 6 6 5 10 15 15 15 14 14 13 12 13 15 15 14 14 14 15 17 18 18 14 14 14
4 4 3 4 5 4 5 4 4 4 3 3 5 4 4 5 6 6 8 8 8 7 5 11 13 15 14 14 14 14 13 12 10 12 14 14 16 16 18 19 21 17 14
5 4 4 4 4 3 4 4 5 5 3 3 3 4 4 4 4 5 5 5 6 7 6 7 6 7 14 14 14 13 13 13 13 13 11 12 15 16 17 18 19 21 24
4 4 3 4 4 4 5 6 3 4 4 4 2 3 2 3 4 4 4 4 5 5 5 5 4 4 5 12 14 13 13 12 12 12 12 12 12 14 15 16 16 19 20
3 2 3 4 5 3 5 5 5 1 2 4 1 1 2 3 1 2 3 3 4 3 3 4 5 5 5 4 9 13 14 13 12 12 11 10 10 11 14 16 14 15 17
2 2 4 4 3 3 3 3 3 4 2 2 4 1 1 1 2 2 3 1 2 2 1 2 3 4 4 4 6 8 13 13 13 13 12 10 9 9 11 13 14 13 13
1 1 2 2 1 1 1 1 1 1 2 1 1 1 0 1 2 2 2 3 1 2 1 2 2 2 2 2 5 8 11 13 13 14 13 13 11 9 9 11 13 11 12
2 1 1 2 3 2 2 2 1 1 1 1 1 0 1 1 1 3 2 1 1 1 1 2 3 3 1 0 1 4 10 11 12 12 11 12 11 11 11 11 11 10 10
3 4 4 4 4 4 4 3 3 3 2 2 2 2 2 2 2 3 3 2 4 3 3 4 4 3 2 0 2 5 8 10 12 12 12 11 10 10 10 11 13 11 8
3 4 5 5 5 6 5 4 5 4 4 4 5 4 3 4 2 2 3 3 4 2 3 5 6 5 4 2 2 5 5 9 12 12 12 11 9 9 8 9 12 13 11
5 4 5 6 7 7 7 6 5 5 5 5 7 6 4 5 5 4 3 3 3 4 3 5 5 6 5 4 3 6 5 8 11 12 12 11 10 11 10 9 11 11 9
6 8 8 8 8 8 8 7 6 7 6 7 7 7 6 5 5 5 5 5 4 3 3 4 4 8 7 5 5 5 5 7 11 11 12 12 11 10 11 11 11 12 11
7 8 8 8 8 8 8 8 7 8 8 7 6 8 9 7 7 6 7 7 7 6 5 3 4 4 5 6 6 7 6 9 10 12 12 12 13 12 12 12 14 13 13
7 8 9 9 9 10 10 9 11 10 11 11 10 10 12 9 8 7 7 7 8 8 9 5 5 4 5 8 7 6 6 7 6 12 13 13 13 14 14 15 16 14 13
7 8 8 9 10 11 10 11 12 11 12 13 13 11 13 8 13 11 8 11 10 10 8 12 7 5 9 7 7 8 7 6 7 9 13 14 14 14 15 15 15 13 10
7 7 7 9 10 10 10 11 12 13 13 14 14 14 14 13 13 10 12 10 9 8 10 9 9 4 6 5 7 8 8 8 7 11 13 14 16 17 15 14 12 13 13
7 7 7 8 9 9 9 10 11 12 13 13 14 14 14 14 15 14 12 13 11 10 10 10 10 10 8 7 6 8 8 6 6 6 10 13 15 15 15 12 11 13 15
7 7 8 8 8 8 7 9 10 12 12 13 13 13 14 16 22 19 10 12 12 11 9 9 10 9 9 7 8 4 6 6 7 6 6 5 5 6 6 11 12 14 16
6 6 7 8 9 7 12 16 14 10 12 13 13 13 13 18 21 26 27 24 18 13 13 11 11 12 14 9 7 7 7 5 5 4 4 5 4 6 7 8 14 16 18
7 8 9 8 10 12 15 17 18 11 11 12 13 12 11 9 16 14 22 26 26 26 23 14 13 14 12 11 9 10 10 9 9 5 6 9 6 8 7 8 16 17 18
8 9 10 10 10 11 18 19 20 12 11 13 14 14 14 14 13 14 13 12 15 17 19 15 14 12 11 11 12 11 10 10 7 7 7 8 7 9 8 8 16 17 16
9 8 8 11 12 12 19 20 18 11 12 13 13 14 14 15 20 22 13 13 13 13 17 21 20 16 17 21 15 8 9 8 9 8 7 6 7 6 6 8 8 11 11
8 7 9 10 13 12 17 20 18 9 11 11 12 12 21 20 23 22 15 14 13 15 12 10 11 14 18 17 23 14 9 9 8 5 8 7 7 3 4 2 3 4 4
Wind_Direction
31 21 27 26 22 10 9 12 9 4 3 359 8 18 38 67 95 85 62 27 35 37 40 41 41 33 35 30 45 41 44 45 46 40 28 32 7 357 349 335 349 315 269
32 31 31 30 26 14 14 13 20 5 360 1 30 42 70 70 67 75 68 38 46 44 44 39 39 35 26 27 46 44 41 31 30 32 40 29 12 351 333 340 330 8 354
45 37 34 29 20 15 17 27 23 15 29 47 72 68 71 72 78 79 79 61 51 47 46 46 46 40 34 27 26 28 27 27 27 21 19 13 22 8 333 327 323 319 313
35 38 35 30 15 19 22 34 19 34 48 64 62 68 81 88 87 82 75 65 59 53 48 46 46 41 39 37 34 32 34 28 24 15 14 23 26 18 6 3 327 310 303
39 40 30 25 16 22 23 11 35 28 46 50 78 73 75 82 77 78 72 68 61 54 49 45 43 43 41 40 37 33 31 27 27 27 21 24 20 14 4 9 14 354 311
37 36 38 31 23 26 32 36 39 37 14 1 87 84 72 71 76 72 72 73 64 56 51 47 40 39 41 39 38 33 30 27 18 12 6 8 16 8 4 14 19 17 20
47 40 40 35 25 24 23 24 23 28 41 351 248 142 100 73 75 69 63 55 54 51 51 46 44 37 36 37 33 31 25 22 20 13 3 6 16 11 0 17 19 19 24
60 59 40 41 27 14 26 34 37 18 38 15 350 255 215 181 121 70 66 63 63 42 58 59 55 48 39 34 28 25 18 13 11 7 1 356 7 12 1 358 13 17 19
67 47 45 44 31 24 26 25 29 43 16 44 47 340 198 241 289 189 209 89 38 33 92 128 86 53 34 28 16 16 12 3 1 358 355 351 351 0 3 350 347 6 14
231 51 50 32 2 24 25 12 46 119 190 160 198 84 73 266 235 262 224 227 242 7 28 160 139 99 40 26 21 8 6 359 357 354 350 342 341 354 352 350 339 343 352
256 267 255 255 262 254 243 241 236 249 305 291 285 221 205 223 249 247 279 229 243 194 169 191 186 181 156 33 350 356 355 351 348 346 344 339 346 348 344 344 338 333 335
259 243 239 241 248 253 249 243 233 231 233 240 241 233 237 234 206 219 244 265 280 257 232 216 212 203 184 188 332 341 345 341 337 335 336 335 350 342 333 337 334 328 321
248 250 236 239 241 241 242 236 234 233 226 227 221 232 230 233 216 213 222 235 258 269 256 223 211 204 203 218 291 304 314 327 327 322 325 329 336 332 323 323 331 323 317
258 258 244 239 240 238 235 230 236 240 235 239 240 231 236 227 213 213 212 209 245 254 258 248 206 213 212 221 275 309 305 314 317 315 316 314 312 320 310 315 324 315 312
251 249 242 245 243 243 241 234 238 240 232 236 237 237 236 241 228 227 224 215 222 251 260 203 228 212 220 230 257 279 280 290 302 302 302 300 291 296 300 305 312 309 296
255 258 257 249 253 248 244 235 243 244 242 240 236 234 234 233 231 225 222 219 219 234 254 237 221 221 220 230 248 264 267 280 290 288 290 292 285 282 287 294 300 300 290
270 265 267 267 259 254 244 235 238 238 236 243 234 232 240 228 232 225 220 224 222 213 237 254 243 223 240 241 253 254 251 266 275 274 278 282 278 280 282 290 291 287 279
278 267 265 261 259 255 251 242 248 242 236 241 241 231 239 228 235 230 223 227 224 216 226 249 258 235 232 243 255 260 261 264 267 264 268 274 274 277 280 285 281 274 264
297 291 276 269 271 266 261 251 247 250 243 241 240 231 235 226 233 227 224 227 227 225 224 236 250 246 249 233 248 256 261 265 260 258 264 267 272 272 274 275 274 285 286
302 298 286 279 275 275 265 262 251 251 251 247 245 240 237 229 229 227 222 223 225 226 224 230 242 252 252 243 236 263 265 251 260 255 257 263 265 260 262 253 271 286 279
312 306 302 295 287 279 272 265 255 254 254 255 250 244 240 236 233 228 219 221 216 219 223 228 235 239 239 228 231 233 246 266 264 249 266 253 237 236 242 251 273 277 270
305 300 297 298 300 285 279 277 272 258 252 250 254 250 242 242 240 240 236 228 213 209 218 219 230 230 236 234 237 233 242 248 274 189 230 248 226 251 248 253 264 271 266
314 309 306 300 298 297 295 288 283 267 257 253 252 255 253 242 239 237 242 237 228 226 225 221 226 224 235 229 221 231 229 232 243 237 237 270 247 263 257 258 263 268 265
316 313 309 305 295 294 298 297 291 278 265 256 253 251 247 249 235 232 233 232 231 227 224 223 222 231 231 232 211 224 233 243 249 245 226 265 264 259 267 261 265 263 263
318 312 305 302 301 296 299 299 298 281 269 264 258 252 246 247 245 242 231 229 233 233 233 228 223 225 226 235 227 221 220 225 250 246 207 238 264 270 266 269 265 266 261
293 296 291 287 285 287 292 297 302 289 279 275 273 262 255 248 251 243 234 223 229 231 212 213 228 239 244 241 234 218 219 220 225 245 218 225 244 227 279 236 261 213 204